Medford, OR

10:38 PM PDT on July 27, 2017 (GMT -0700)
Rogue Valley International-Medford

Weather History for KMFR - November, 2014

Change the Weather History Date:

Saturday, November 22, 2014

  Actual Average Record
Temperature  
Mean Temperature 48 °F 43 °F  
Max Temperature 56 °F 50 °F 68 °F (1926)
Min Temperature 40 °F 35 °F 18 °F (1994)
Degree Days  
Heating Degree Days 17 22  
Month to date heating degree days 358 422  
Since 1 July heating degree days 527 782  
Cooling Degree Days 0 0  
Month to date cooling degree days 0 0  
Year to date cooling degree days 1238 829  
Moisture  
Dew Point 44 °F    
Average Humidity 78    
Maximum Humidity 100    
Minimum Humidity 55    
Precipitation  
Precipitation 0.26 in 0.11 in 2.88 in (1953)
Month to date precipitation 1.20 2.08  
Year to date precipitation 17.22 13.92  
Snow  
Snow 0.00 in 0.00 in - ()
Month to date snowfall 0.0 0.1  
Since 1 July snowfall 0.0 0.1  
Snow Depth 0.00 in    
Sea Level Pressure  
Sea Level Pressure 30.02 in    
Wind  
Wind Speed 4 mph (NNE)    
Max Wind Speed 21 mph    
Max Gust Speed 27 mph    
Visibility 9 miles    
Events Rain    
T = Trace of Precipitation, MM = Missing Value Source: NWS Daily Summary

Daily Weather History Graph

Daily Weather History Graph

Search for Another Location

Airport or City:

Trip Planner

Search our weather history database for the weather conditions in past years. The results will help you decide how hot, cold, wet, or windy it might be!

Date:

Astronomy

Nov. 22, 2014 Rise Set
Actual Time 7:10 AM PST 4:44 PM PST
Civil Twilight 6:40 AM PST 5:14 PM PST
Nautical Twilight 6:05 AM PST 5:49 PM PST
Astronomical Twilight 5:32 AM PST 6:22 PM PST
Moon 7:12 AM PST (11/22) 5:19 PM PST (11/22)
Length of Visible Light 10h 34m
Length of Day
9h 33m
New Moon, 0% of the Moon is Illuminated
Nov 22
New Moon
Nov 29
First Quarter
Dec 6
Full
Dec 14
Last Quarter
Dec 21
New

Hourly Weather History & Observations

Time (PST) Temp. Windchill Dew Point Humidity Pressure Visibility Wind Dir Wind Speed Gust Speed Precip Events Conditions
12:25 AM 48.9 °F - 48.0 °F 97% 29.77 in 6.0 mi Calm Calm - 0.02 in Rain Light Rain
12:35 AM 48.9 °F - 48.0 °F 97% 29.77 in 8.0 mi Calm Calm - 0.02 in Rain Light Rain
12:53 AM 48.9 °F - 48.0 °F 97% 29.78 in 7.0 mi SSW 3.5 mph - 0.02 in Rain Light Rain
1:27 AM 48.9 °F - 48.0 °F 97% 29.78 in 4.0 mi NW 3.5 mph - 0.03 in Rain Light Rain
1:45 AM 48.9 °F - 48.0 °F 97% 29.79 in 7.0 mi North 5.8 mph - 0.03 in Rain Light Rain
1:53 AM 48.9 °F - 48.0 °F 97% 29.79 in 5.0 mi Calm Calm - 0.03 in Rain Light Rain
2:18 AM 50.0 °F - 48.0 °F 93% 29.80 in 8.0 mi SE 5.8 mph - 0.01 in Rain Light Rain
2:53 AM 50.0 °F - 48.9 °F 96% 29.82 in 10.0 mi ENE 9.2 mph - 0.01 in   Overcast
3:53 AM 48.9 °F - 48.0 °F 97% 29.83 in 10.0 mi South 6.9 mph - 0.00 in   Mostly Cloudy
4:53 AM 50.0 °F - 48.0 °F 93% 29.83 in 10.0 mi ESE 4.6 mph - 0.00 in   Mostly Cloudy
5:53 AM 48.9 °F - 46.0 °F 90% 29.84 in 10.0 mi Calm Calm - N/A   Partly Cloudy
6:53 AM 50.0 °F - 45.0 °F 83% 29.86 in 10.0 mi SSW 4.6 mph - N/A   Mostly Cloudy
7:53 AM 51.1 °F - 45.0 °F 80% 29.90 in 10.0 mi Calm Calm - 0.00 in   Mostly Cloudy
8:53 AM 51.1 °F - 43.0 °F 74% 29.96 in 10.0 mi WSW 4.6 mph - 0.02 in   Mostly Cloudy
9:53 AM 50.0 °F - 44.1 °F 80% 30.03 in 8.0 mi NNW 6.9 mph - 0.05 in Rain Light Rain
10:53 AM 51.1 °F - 44.1 °F 77% 30.04 in 10.0 mi Variable 6.9 mph - 0.06 in   Mostly Cloudy
11:53 AM 51.1 °F - 42.1 °F 71% 30.05 in 10.0 mi SE 8.1 mph - N/A   Overcast
12:53 PM 52.0 °F - 44.1 °F 74% 30.07 in 10.0 mi North 3.5 mph - 0.01 in   Scattered Clouds
1:53 PM 55.9 °F - 39.0 °F 53% 30.08 in 10.0 mi West 11.5 mph - N/A   Mostly Cloudy
2:53 PM 50.0 °F - 42.1 °F 74% 30.12 in 10.0 mi Calm Calm - 0.02 in   Scattered Clouds
3:53 PM 51.1 °F - 42.1 °F 71% 30.16 in 10.0 mi ESE 4.6 mph - N/A   Mostly Cloudy
4:53 PM 46.9 °F - 39.9 °F 77% 30.19 in 10.0 mi NNE 11.5 mph - N/A   Overcast
5:53 PM 44.6 °F 42.2 °F 41.0 °F 87% 30.23 in 9.0 mi NNE 4.6 mph - N/A Rain Light Rain
6:53 PM 46.0 °F - 42.1 °F 86% 30.26 in 10.0 mi Calm Calm - 0.03 in Rain Light Rain
7:53 PM 45.0 °F - 42.1 °F 90% 30.28 in 10.0 mi Calm Calm - 0.00 in   Overcast
8:53 PM 43.0 °F 40.3 °F 42.1 °F 97% 30.30 in 8.0 mi SW 4.6 mph - N/A   Overcast
9:53 PM 43.0 °F - 41.0 °F 93% 30.32 in 9.0 mi Calm Calm - N/A   Clear
10:53 PM 42.1 °F 40.2 °F 41.0 °F 96% 30.35 in 10.0 mi North 3.5 mph - N/A   Mostly Cloudy
11:53 PM 39.9 °F 37.8 °F 39.0 °F 97% 30.37 in 10.0 mi North 3.5 mph - N/A   Scattered Clouds